www.pogodaiklimat.ru
Время
(UTC), дата
20 24.03
19 24.03
21 24.03
22 24.03
23 24.03
00 25.03
02 25.03
01 25.03
03 25.03
04 25.03
05 25.03
06 25.03
08 25.03
07 25.03
09 25.03
10 25.03
11 25.03
12 25.03
14 25.03
13 25.03
15 25.03
16 25.03
17 25.03
18 25.03
20 25.03
19 25.03
21 25.03
22 25.03
23 25.03
00 26.03
02 26.03
01 26.03
03 26.03
04 26.03
05 26.03
06 26.03
08 26.03
07 26.03
09 26.03
10 26.03
11 26.03
12 26.03
14 26.03
13 26.03
15 26.03
16 26.03
17 26.03
18 26.03
20 26.03
19 26.03
21 26.03
22 26.03
23 26.03
00 27.03
02 27.03
01 27.03
03 27.03
04 27.03
05 27.03
06 27.03
08 27.03
07 27.03
09 27.03
10 27.03
11 27.03
12 27.03
14 27.03
13 27.03
15 27.03
16 27.03
17 27.03
18 27.03
20 27.03
19 27.03
21 27.03
22 27.03
23 27.03
00 28.03
02 28.03
01 28.03
03 28.03
04 28.03
05 28.03
06 28.03
08 28.03
07 28.03
09 28.03
10 28.03
11 28.03
12 28.03
14 28.03
13 28.03
15 28.03
16 28.03
17 28.03
18 28.03
20 28.03
19 28.03
21 28.03
22 28.03
23 28.03
00 29.03
02 29.03
01 29.03
03 29.03
04 29.03
05 29.03
06 29.03
08 29.03
07 29.03
09 29.03
10 29.03
11 29.03
12 29.03
14 29.03
13 29.03
15 29.03
16 29.03
17 29.03
18 29.03
20 29.03
19 29.03
21 29.03
22 29.03
23 29.03
00 30.03
02 30.03
01 30.03
03 30.03
04 30.03
05 30.03
08 30.03
07 30.03
09 30.03
10 30.03
11 30.03
12 30.03
14 30.03
13 30.03
15 30.03
16 30.03
17 30.03
18 30.03
20 30.03
19 30.03
21 30.03
22 30.03
23 30.03
00 31.03
02 31.03
01 31.03
03 31.03
04 31.03
05 31.03
06 31.03
08 31.03
07 31.03
09 31.03
10 31.03
11 31.03
12 31.03
14 31.03
13 31.03
15 31.03
16 31.03
17 31.03
18 31.03
Ветер
(напр.,м/с)
Видим. Явления Облачность Т
(С)
Тd
(С)
f
(%)
Тe
(С)
Тes
(С)
Комфортность P
(гПа)
Po
(гПа)
Тmin
(С)
Tmax
(С)
R
(мм)
R24
(мм)
S
(см)
С 4 45 км 1/0
[Ac lent Ci fib]
+0.8 -9.2 47 -4 -4 по сезону 1030.7 1013.7
СВ 4 45 км 1/0
[Ac lent Ci fib]
+1.7 -9.5 43 -3 -3 тепло 1030.3 1013.3
С 4 45 км 3/0
[Ac lent Ci fib]
+0.2 -8.5 52 -5 -5 очень
холодно
1031.3 1014.2
С 3 45 км 3/0
[Ac lent Ci sp]
0.0 -8.9 51 -4 -4 прохладно 1031.3 1014.2
С 3 40 км 3/0
[Ac lent Ci fib]
-0.7 -9.1 53 -5 -5 по сезону 1031.4 1014.3
С 3 40 км 4/0
[Ac lent]
-1.8 -9.2 57 -6 -6 очень
холодно
1031.6 1014.4
С 4 30 км 8/0
[Ac lent]
-0.6 -8.8 54 -6 -6 прохладно 1031.4 1014.3
С 3 35 км 5/0
[Ac lent]
-1.6 -9.2 56 -6 -6 по сезону 1031.4 1014.2
С 3 30 км 8/0 2000 м
[Ac lent]
-0.6 -9.5 51 -5 -5 холодно 1030.9 1013.8
СВ 3 30 км 8/0
[Ac lent]
-0.5 -10.2 48 -5 -5 прохладно 1030.8 1013.7
С 4 35 км 6/0
[Ac lent Ci fib]
-1.3 -10.1 51 -6 -6 по сезону 1030.8 1013.6
СВ 3 30 км 8/0
[Ac lent Ci sp]
-0.9 -10.0 50 -5 -5 холодно 1030.8 1013.7 -2.2
В 6 40 км 9/3 1500 м
[Sc Ac As Cs]
+2.1 -9.8 41 -3 -2 по сезону 1031.1 1014.1
СВ 5 30 км 6/0
[Ac lent Ci sp]
+1.3 -9.6 44 -4 -2 по сезону 1030.8 1013.8
В 7 30 км 10/9 1230 м
[Sc]
+2.8 -8.8 42 -3 -3 очень
холодно
1030.9 1014.0
В 9 25 км 10/9 1050 м
[Sc]
+2.5 -5.6 55 -4 -4 холодно 1030.8 1013.9
В 9 20 км 9/9 800 м
[Cu Sc]
+2.9 -4.1 60 -4 -3 прохладно 1030.6 1013.7
В 6 25 км 9/9 1020 м
[Sc]
+3.0 -5.9 52 -2 -2 очень
холодно
1030.3 1013.4
В 7 30 км в посл. час дождь со снегом 10/5 1080 м
[Cu Sc Ac As]
+3.4 -5.5 52 -2 -2 очень
холодно
1030.1 1013.2
В 7 10 км слаб. дождь со снегом 9/9 700 м
[Sc]
+3.0 -5.2 55 -3 -2 очень
холодно
1030.2 1013.3
В 6 30 км {дождь} 9/6 1200 м
[Cu Sc Ac lent Ci fib]
+3.8 -6.2 48 -1 -1 очень
холодно
1029.5 1012.7
ЮВ 6 30 км 10/5 1200 м
[Cu Sc Ac As]
+3.7 -5.5 51 -1 -1 холодно 1029.4 1012.6
ЮВ 4 30 км 8/5 1200 м
[Cu Sc Ac lent Ci fib]
+2.9 -3.9 61 -1 -1 прохладно 1029.8 1012.9
штиль 0 25 км {снег, дождь} 8/5 1380 м
[Cu Sc Ac lent]
+1.9 -3.6 67 +1 +1 холодно 1029.8 1012.9 +4.2 0.0
С 3 25 км 9/6 1500 м
[Sc Ac lent]
+0.4 -3.5 75 -4 -4 холодно 1029.5 1012.5
В 1 25 км 9/9 1500 м
[Sc Ac lent]
+1.7 -3.4 69 0 0 по сезону 1029.9 1012.9
СВ 4 25 км 9/9 1500 м
[Sc]
+1.3 -4.3 66 -3 -3 холодно 1029.5 1012.5
СВ 3 30 км 5/4 1500 м
[Sc Ac lent]
-0.9 -5.5 71 -5 -5 холодно 1029.1 1012.0
С 3 30 км 9/9 1500 м
[Sc]
+0.3 -5.1 67 -4 -4 по сезону 1028.5 1011.5
С 3 30 км 9/9 1440 м
[Sc]
+0.1 -5.1 68 -4 -4 холодно 1028.0 1011.0
СВ 2 30 км 10/10 1500 м
[Sc]
+1.3 -5.2 62 -2 -2 по сезону 1027.2 1010.2
СВ 2 30 км 9/9 1440 м
[Sc]
+0.3 -4.9 68 -3 -3 по сезону 1027.7 1010.7
С 2 30 км 10/10 1500 м
[Sc]
+1.3 -5.0 63 -2 -2 прохладно 1026.9 1010.0
СВ 3 30 км 10/10 1500 м
[Sc]
+1.9 -5.2 59 -2 -2 по сезону 1026.4 1009.5
С 2 25 км 10/10 1500 м
[Sc]
+2.2 -5.0 59 -1 -1 тепло 1026.4 1009.5
СВ 4 20 км 10/0 2000 м
[Ac As]
+3.3 -5.6 52 -1 -0 по сезону 1026.4 1009.6 -1.1 0.0
СВ 4 20 км 10/0
[Ac As]
+4.7 -5.9 46 +1 +3 по сезону 1026.4 1009.7
СВ 5 20 км 10/0
[Ac As]
+3.8 -5.7 50 -1 0 тепло 1026.2 1009.4
В 4 35 км 10/0 1500 м
[Ac As]
+5.4 -5.9 44 +2 +4 прохладно 1026.6 1009.9
В 8 35 км 9/0
[Ac As]
+7.4 -6.7 36 +3 +4 по сезону 1025.9 1009.3
В 7 35 км 9/0
[Ac As]
+8.5 -6.4 34 +5 +6 тепло 1025.3 1008.8
СВ 5 35 км 9/0 2000 м
[Ac As]
+10.3 -4.8 34 +8 +10 по сезону 1024.5 1008.1
В 5 35 км 9/0
[Ac As]
+11.7 -3.2 35 +10 +11 тепло 1023.5 1007.2
В 6 35 км 9/0
[Ac As]
+11.3 -4.0 34 +9 +10 тепло 1023.9 1007.6
В 5 30 км 9/0
[Ac lent Cs]
+11.9 -3.0 35 +10 +11 тепло 1023.0 1006.7
В 3 30 км 9/0
[Ac lent Cs]
+12.0 -2.2 37 +11 +11 тепло 1022.7 1006.5
СВ 4 30 км 9/0
[Ac lent Cs]
+10.3 -2.4 41 +8 +8 тепло 1023.0 1006.7
СВ 3 40 км 9/0
[Ac As Cs]
+8.6 -2.1 47 +7 +7 по сезону 1023.0 1006.6 +12.3
С 4 35 км 9/0
[Ac As Cs]
+7.9 -1.9 50 +5 +5 по сезону 1023.0 1006.5
С 2 40 км 9/0
[Ac As Cs]
+8.1 -2.5 47 +7 +7 тепло 1023.1 1006.6
С 3 30 км 8/0
[Ac As Ci fib]
+7.2 -2.0 52 +5 +5 по сезону 1022.8 1006.3
СВ 4 30 км 9/0
[Ac lent Cs]
+5.8 -1.8 58 +2 +2 по сезону 1022.7 1006.1
С 4 30 км 9/0
[Ac lent Cs]
+6.4 -2.5 53 +3 +3 тепло 1022.5 1005.9
С 2 30 км 8/0
[Ac As Cs]
+6.5 -2.9 51 +5 +5 тепло 1022.4 1005.9
штиль 0 30 км 3/0
[Cs]
+5.4 -2.7 56 +5 +5 тепло 1022.3 1005.7
СВ 2 30 км 4/0
[Ac As Cs]
+4.9 -3.1 56 +3 +3 тепло 1022.4 1005.7
С 2 25 км 8/0 2000 м
[Ac lent Ci sp]
+5.3 -2.3 58 +3 +3 по сезону 1022.4 1005.8
С 3 25 км 4/0
[Ac lent Ci fib]
+4.0 -2.6 62 +1 +1 по сезону 1022.5 1005.8
С 4 30 км 8/0
[Ac trans Ci fib]
+4.6 -1.8 63 +1 +1 тепло 1022.9 1006.2
СВ 3 30 км 6/0 2000 м
[Ac trans Ci fib]
+7.1 -0.6 58 +5 +5 тепло 1022.9 1006.4 +4.0
В 6 30 км 4/0
[Ac lent Ci fib]
+9.9 -0.9 47 +7 +9 тепло 1022.9 1006.5
СВ 3 30 км 4/0
[Ac lent Ci fib]
+8.4 -1.1 51 +6 +9 тепло 1023.0 1006.5
В 6 30 км 4/0 2000 м
[Ac lent Ci fib]
+11.8 -0.7 42 +9 +13 тепло 1022.5 1006.3
В 4 25 км 5/0
[Ac lent Ci fib]
+13.4 -0.2 39 +12 +18 тепло 1022.2 1006.0
В 3 25 км 5/0
[Ci fib]
+14.7 -0.2 36 +14 +23 тепло 1021.3 1005.2
В 3 25 км 3/0
[Ci fib]
+15.0 -0.7 34 +15 +23 тепло 1020.8 1004.8
В 3 25 км 3/0
[Ci fib]
+16.0 -0.2 33 +16 +20 тепло 1019.3 1003.3
В 4 25 км 3/0
[Ci fib]
+15.8 0.0 34 +15 +20 тепло 1020.1 1004.1
В 3 25 км 6/0
[Ci fib]
+16.1 -1.4 30 +16 +18 тепло 1018.6 1002.7
В 2 25 км 6/0
[Ci fib]
+15.9 -0.7 32 +16 +17 тепло 1018.4 1002.5
Ю 1 30 км 6/0
[Ci fib]
+14.7 -1.4 33 +15 +15 тепло 1018.6 1002.6
ЮЗ 1 30 км 3/0
[Ci fib]
+13.3 -1.0 37 +14 +14 тепло 1018.7 1002.6 +16.6
З 1 30 км 3/0
[Ci fib]
+9.4 -0.2 51 +9 +9 тепло 1019.0 1002.7
СЗ 2 30 км 3/0
[Ci fib]
+11.1 -0.4 45 +10 +10 тепло 1018.9 1002.7
СЗ 1 30 км 3/0
[Ci fib]
+7.8 -0.2 57 +7 +7 тепло 1019.0 1002.6
штиль 0 30 км 4/0
[Ci fib]
+6.1 -0.2 64 +6 +6 тепло 1018.7 1002.2
30 км 6/0
[Ci fib]
+6.3 +0.6 67 1018.4 1001.9
нст 1 30 км 6/0
[Ci fib]
+5.5 +0.5 70 +5 +5 тепло 1018.0 1001.5
З 1 30 км 6/0
[Ci fib]
+5.5 -0.1 67 +5 +5 тепло 1017.3 1000.8
В 1 30 км 6/0
[Ci fib]
+4.5 +0.3 74 +3 +3 тепло 1017.9 1001.3
СЗ 1 30 км 6/0
[Ci fib]
+3.2 -0.4 77 +2 +2 по сезону 1017.4 1000.7
Ю 1 30 км 3/0
[Ci fib]
+2.8 -0.5 79 +1 +1 тепло 1017.5 1000.8
30 км ясно +1.6 -2.3 75 1017.5 1000.7
СВ 2 30 км 1/0
[Ac lent Ci fib]
+3.3 +1.0 85 0 +2 по сезону 1017.4 1000.8 +0.9
штиль 0 25 км 3/0
[Ac lent Ci fib]
+12.2 +2.4 51 +12 +20 тепло 1016.5 1000.4
25 км 1/0
[Ac lent Ci fib]
+8.8 +2.4 64 1016.9 1000.6
ЮЗ 3 30 км 5/0
[Ac lent Ci sp]
+14.3 +0.6 39 +14 +20 тепло 1015.8 999.8
ЮЗ 4 30 км 4/1 1500 м
[Cu hum Ac lent Ci sp]
+16.1 +0.3 34 +16 +21 тепло 1015.2 999.3
ЮЗ 4 30 км 5/1 1500 м
[Cu hum Ac lent Ci sp]
+17.1 +0.3 32 +17 +22 тепло 1014.6 998.8
ЮЗ 3 35 км 3/1 1500 м
[Cu hum Ac lent Ci fib]
+17.7 +1.7 34 +18 +25 тепло 1013.9 998.1
З 2 35 км 4/3 2000 м
[Cu hum Ac lent Ci fib]
+18.4 +0.5 30 +19 +23 тепло 1012.3 996.6
З 4 30 км 3/1 1500 м
[Cu hum Ac lent Ci sp]
+18.1 +0.7 31 +18 +23 тепло 1013.0 997.3
З 3 30 км 6/5 2000 м
[Cu hum Ac trans Ci fib]
+18.1 -0.2 29 +18 +19 тепло 1011.8 996.1
СЗ 3 30 км 4/4 2000 м
[Cu hum Ac lent Ci fib]
+17.9 +0.1 30 +18 +19 тепло 1011.5 995.8
С 4 30 км 1/1 2000 м
[Cu hum Ac lent]
+16.0 -1.1 31 +15 +15 тепло 1011.7 995.9
СЗ 2 30 км 1/1 1500 м
[Sc diur, vesp Ac lent]
+14.6 -0.7 35 +15 +15 тепло 1012.1 996.2 +19.0
С 1 25 км 6/0
[Ac As]
+10.8 +0.2 48 +11 +11 тепло 1012.7 996.6
СЗ 1 30 км 6/0
[Ac trans]
+11.7 +0.2 45 +12 +12 тепло 1012.7 996.6
В 2 30 км 6/0 2000 м
[Ac As]
+9.4 +2.7 63 +8 +8 тепло 1013.4 997.2
С 2 30 км 4/1 1500 м
[Sc Ac lent]
+9.4 +2.3 61 +8 +8 тепло 1013.3 997.1
СЗ 1 25 км 1/0
[Ac lent]
+8.1 +1.7 64 +8 +8 тепло 1013.2 996.9
ЮЗ 2 25 км 1/0
[Ac lent]
+8.0 +2.2 67 +6 +6 тепло 1013.1 996.8
З 3 25 км 6/0
[Ac trans]
+7.7 -0.3 57 +5 +5 тепло 1012.6 996.3
Ю 1 25 км 3/0
[Ac trans]
+4.2 0.0 74 +3 +3 тепло 1013.0 996.5
СЗ 5 25 км 4/0 2000 м
[Ac trans]
+9.0 -0.8 50 +6 +6 тепло 1012.5 996.3
СЗ 6 20 км 1/0
[Ac lent]
+8.2 +0.2 57 +5 +5 тепло 1012.5 996.2
СЗ 5 15 км 1/0
[Ac lent]
+7.8 -0.2 57 +4 +5 тепло 1012.7 996.4
З 9 15 км 1/0 2000 м
[Ac lent]
+7.8 -0.4 56 +3 +3 по сезону 1013.3 997.0 +3.6
З 5 15 км 1/0
[Ac lent]
+9.9 -0.3 49 +7 +11 тепло 1013.9 997.7
З 7 12 км 1/0
[Ac lent]
+8.9 +0.1 54 +5 +6 тепло 1013.8 997.5
СЗ 7 15 км 1/0
[Ci fib]
+11.4 +0.5 47 +9 +11 тепло 1013.8 997.7
З 7 15 км ясно +12.5 -1.0 39 +10 +13 тепло 1013.7 997.6
З 6 15 км 1/1 1500 м
[Cu hum Ci fib]
+14.2 -0.2 37 +13 +17 тепло 1013.4 997.4
З 9 15 км 1/1 1500 м
[Cu hum]
+14.5 -0.4 36 +12 +13 тепло 1012.5 996.6
СЗ 10 18 км 4/1 1500 м
[Cu hum Ci sp]
+13.8 -1.0 36 +11 +11 тепло 1012.8 996.8
СЗ 10 15 км 3/1 1500 м
[Cu hum Ci sp]
+14.4 -0.4 36 +12 +12 тепло 1012.6 996.7
СЗ 9 25 км 5/1 1500 м
[Cu hum Ac lent]
+14.1 -1.9 33 +12 +12 тепло 1012.9 996.9
СЗ 9 25 км 5/1 1500 м
[Cu hum Ac lent Ci fib]
+13.1 -2.0 35 +10 +11 тепло 1013.5 997.5
СЗ 8 30 км 4/0
[Ac lent Cs]
+11.6 -2.9 36 +9 +9 тепло 1014.2 998.1
СЗ 9 35 км 4/0
[Ac lent Cs]
+10.5 -4.3 35 +7 +7 тепло 1015.1 998.9 +14.9
С 8 35 км 9/0
[Ac lent Cs]
+7.8 -0.4 56 +3 +3 тепло 1017.1 1000.7
СЗ 9 35 км 6/0
[Ac lent Cs]
+9.0 -3.2 42 +5 +5 тепло 1016.4 1000.1
С 4 30 км 9/0
[Ac lent Cs]
+6.7 -0.5 60 +3 +3 по сезону 1017.7 1001.2
С 5 30 км 9/0
[Ac lent Cs]
+6.1 -0.4 63 +2 +2 тепло 1018.3 1001.8
СЗ 5 25 км 9/6 900 м
[Sc Ac As]
+5.9 +0.2 67 +2 +2 тепло 1018.8 1002.3
С 7 45 км 10/6 750 м
[Cu Sc Ac As]
+4.4 -1.8 64 -1 -1 прохладно 1019.6 1003.0
СЗ 9 45 км 9/1 750 м
[Cu Sc As op Cs]
+2.9 -3.6 62 -4 -4 прохладно 1020.3 1003.6
СЗ 9 45 км 10/1 750 м
[Cu Sc As op Cs]
+3.5 -3.1 62 -3 -3 по сезону 1019.9 1003.2
СЗ 9 50 км 9/1 870 м
[Cu Sc As op]
+2.5 -4.5 60 -4 -4 холодно 1021.1 1004.3
С 8 50 км 9/4 800 м
[Cu Sc Ac As]
+1.9 -4.8 61 -5 -5 прохладно 1021.6 1004.8
С 7 50 км 9/3 1000 м
[Sc Ac As]
+1.2 -5.9 59 -5 -5 по сезону 1022.3 1005.4
С 6 50 км 9/1 1300 м
[Sc Ac As]
+1.5 -8.0 49 -4 -3 по сезону 1024.2 1007.3
С 7 50 км 9/4 1200 м
[Sc Ac As]
+0.9 -7.8 52 -5 -5 тепло 1023.6 1006.7
С 9 50 км 9/3 1380 м
[Sc Ac As]
+2.1 -9.2 43 -4 -4 очень
холодно
1024.0 1007.2
С 9 50 км 9/3 1440 м
[Sc Ac As]
+2.8 -9.1 41 -3 -3 холодно 1024.0 1007.2
С 9 50 км 8/1 1500 м
[Cu hum Ac As Ci fib]
+3.8 -11.0 33 -2 -1 прохладно 1023.6 1006.9
С 7 50 км 8/1 1500 м
[Cu hum Ac As Ci fib]
+4.6 -10.3 33 -0 +2 очень
холодно
1023.1 1006.4
С 7 50 км 8/1 1500 м
[Cu hum Ac lent Ci fib]
+6.0 -10.2 30 +2 +3 холодно 1022.4 1005.8
С 8 50 км 6/1 1500 м
[Cu hum Ac lent Ci fib]
+5.3 -12.2 27 +1 +2 холодно 1022.8 1006.2
С 7 50 км 6/0
[Ac lent Ci sp]
+5.4 -10.8 30 +1 +2 очень
холодно
1022.6 1006.0
С 5 50 км 6/0
[Ci sp]
+4.7 -11.8 29 +1 +2 холодно 1022.8 1006.1
С 6 50 км 5/0
[Ci sp]
+3.9 -10.9 33 -1 -1 холодно 1023.3 1006.6
С 4 50 км 3/0
[Ci sp]
+1.8 -10.7 39 -2 -2 очень
холодно
1024.2 1007.3 +6.5
С 5 50 км 3/0
[Ci fib]
+0.1 -10.1 46 -5 -5 очень
холодно
1025.5 1008.5
С 3 50 км 1/0
[Ci fib]
+0.6 -10.5 43 -3 -3 холодно 1025.1 1008.1
С 4 50 км 1/0
[Ci fib]
-1.0 -10.1 50 -6 -6 очень
холодно
1026.0 1008.9
С 4 50 км 1/0
[Ci fib]
-1.9 -10.4 52 -7 -7 очень
холодно
1026.3 1009.2
С 4 50 км 1/0
[Ci fib]
-2.4 -10.4 54 -8 -8 холодно 1026.4 1009.2
С 2 50 км ясно -1.8 -11.6 47 -5 -5 очень
холодно
1026.2 1009.1
СЗ 1 50 км ясно -1.8 -11.9 46 -3 -3 прохладно 1026.0 1008.9
С 2 50 км ясно -0.7 -11.2 45 -4 -4 по сезону 1026.0 1008.9
В 1 50 км 1/0
[Ci fib]
-3.6 -10.0 61 -5 -5 очень
холодно
1026.4 1009.1
Ю 1 50 км 1/0
[Ac lent]
-3.4 -10.3 59 -5 -5 прохладно 1026.5 1009.3
50 км 4/0
[Ac lent Ci fib]
-3.7 -10.3 60 1026.9 1009.6
Ю 1 50 км 1/1 1500 м
[Sc Ac lent Ci fib]
-0.5 -6.9 62 -2 -0 холодно 1027.2 1010.1 -4.5
50 км 4/1 1500 м
[Cu hum Ac lent Ci fib]
+3.7 -10.3 35 1027.3 1010.5
50 км 3/0
[Ac lent Ci sp]
+3.2 -10.1 37 1027.2 1010.4
ЮВ 3 50 км 3/3 1500 м
[Cu med, cong Ac lent Ci fib]
+5.2 -9.0 35 +3 +8 прохладно 1027.0 1010.3
ЮЗ 2 50 км 6/6 1500 м
[Cu med, cong Ac lent Ci fib]
+6.0 -9.4 32 +5 +9 по сезону 1026.7 1010.0
СЗ 3 50 км 8/6 1440 м
[Cu med, cong Ac lent Ci fib]
+6.4 -9.9 30 +4 +7 по сезону 1026.1 1009.5
нст 2 50 км осадки на расстоянии 8/8 1410 м
[St Ac lent]
+6.9 -8.6 32 +6 +8 прохладно 1025.6 1009.0
ЮЗ 3 50 км осадки на расстоянии 8/8 1300 м
[Cb calv Ac cuf]
+6.2 -8.9 33 +4 +5 прохладно 1024.7 1008.1
50 км осадки на расстоянии 8/8 1350 м
[Cu med, cong Ac cuf]
+6.1 -10.2 30 1025.2 1008.6
нст 2 50 км в посл. час ливневой снег 8/8 1200 м
[Cb cap Ac cuf]
+5.9 -8.8 34 +4 +5 холодно 1024.7 1008.1
СЗ 3 50 км 6/6 1350 м
[Cb cap Ac cuf]
+6.1 -8.2 35 +4 +4 прохладно 1024.9 1008.3
С 6 40 км 6/5 1350 м
[Cb cap Ac cuf]
+4.2 -6.1 47 -1 -1 холодно 1025.3 1008.6
нст 2 40 км {ливн. осадки} 6/3 750 м
[Cu Sc Ac cuf]
+1.7 -5.2 60 -1 -1 очень
холодно
1026.0 1009.1 +7.1
Местоположение метеостанции Братислава (Словакия): широта 48.17 долгота 17.21 высота над уровнем моря 134 м.
В архиве по умолчанию представлена погода в Братиславе за последнюю неделю. Архивные данные за месяц целиком и за предыдущие месяцы, начиная с января 2011 года, Вы можете получить, выбрав интересующий диапазон дат из раскрывающегося списка и нажав кнопку "Найти!".
*Определитесь, кто Вы:
Внимание! Время в таблицах - всемирное. Для получения местного времени необходимо прибавить поправку, которая равна 1 ч.
Смотрите также архив погоды в соседних городах и на ближайших метеорологических станциях:
Партнеры нашего сайта:      
Пояснения к столбцам:
  • Ветер - указаны скорость ветра в м/с - средняя за 10 мин, порывы в срок и между сроками (в фигурных скобках) и направление, откуда дует ветер: С - северный,
  • СВ - северо-восточный, В - восточный, ЮВ - юго-восточный, Ю - южный, ЮЗ - юго-западный, З - западный, СЗ - северо-западный.
  • Видимость - горизонтальная дальность видимости в метрах или километрах. При видимости от 1 до 10 км при отсутствии осадков обычно наблюдается дымка, при ухудшении видимости до 1 км и менее - туман. В сухую погоду видимость может ухудшаться дымом, пылью или мглою.
  • Явления - указаны атмосферные явления, наблюдавшиеся в срок или в последний час перед сроком; фигурными скобками обозначены явления, наблюдавшиеся между сроками (за 1-3 часа до срока); квадратными скобками обозначены град или гололедные отложения с указанием их диаметра в мм.
  • Облачность - указаны через наклонную черту общая и нижняя облачность в баллах и высота нижней границы облаков в метрах; квадратными скобками обозначены формы облаков: Ci - перистые, Cs - перисто-слоистые, Cc - перисто-кучевые, Ac - высококучевые, As - высокослоистые, Sc - слоисто-кучевые, Ns - слоисто-дождевые, Cu - кучевые, Cb - кучево-дождевые. Подробнее классификацию облаков см. в Атласе облаков (PDF).
  • T - Температура воздуха - температура, измеренная на высоте 2 м над землей.
  • Td - Температура точки росы - температура, при понижении до которой содержащийся в воздухе водяной пар достигнет насыщения.
  • f - Относительная влажность воздуха - влажноcть воздуха, измеренная на высоте 2 м над землей.
  • Te - Эффективная температура - температура, которую ощущает одетый по сезону человек в тени. Характеристика душности погоды. При расчете учитывается влияние влажности воздуха и скорости ветра на теплоощущения человека.
  • Tes - Эффективная температура на солнце - температура, которую ощущает человек, с поправкой на солнечный нагрев. Характеристика знойности погоды. Зависит от высоты солнца над горизонтом, облачности и скорости ветра. Ночью, в пасмурную погоду, а также при ветре 12 м/с и более поправка равна нулю.
  • P - Атмосферное давление - приведенное к уровню моря атмосферное давление.
  • Po - Атмосферное давление - измеренное на уровне метеостанции атмосферное давление.
  • Tmin - Минимальная температура - минимум температуры воздуха на высоте 2 м над землей.
  • Tmax - Максимальная температура - максимум температуры воздуха на высоте 2 м над землей.
  • R - Количество осадков - Количество выпавших осадков за период времени, мм. При наведении курсора мыши на число - период времени, за который выпало указанное количество осадков.
  • R24 - Количество осадков - Количество выпавших осадков за 24 часа, мм.
  • S - Снежный покров - Высота снежного покрова, см. При наведении курсора мыши на число - состояние снежного покрова и степень покрытия местности в баллах.